Time,TemperatureF,DewpointF,PressureIn,WindDirection,WindDirectionDegrees,WindSpeedMPH,WindSpeedGustMPH,Humidity,HourlyPrecipIn,Conditions,Clouds,dailyrainin,SolarRadiationWatts/m^2,SoftwareType,DateUTC
2013-02-23 00:01:00,29.0,22.1,30.30,West,259,0.0,0.0,75,0.00,,OVC120,0.00,0.00,VWS V14.01,2013-02-23 05:01:00,
2013-02-23 00:11:00,28.8,21.9,30.30,West,259,0.0,0.0,75,0.00,,OVC120,0.00,0.00,VWS V14.01,2013-02-23 05:11:00,
2013-02-23 00:21:00,28.7,22.4,30.29,West,259,0.0,0.0,77,0.00,,OVC120,0.00,0.00,VWS V14.01,2013-02-23 05:21:00,
2013-02-23 00:31:00,28.4,22.1,30.29,West,259,0.0,2.0,77,0.00,,OVC120,0.00,0.00,VWS V14.01,2013-02-23 05:31:00,
2013-02-23 00:41:00,28.2,21.9,30.29,West,259,0.0,2.0,77,0.00,,OVC120,0.00,0.00,VWS V14.01,2013-02-23 05:41:00,
2013-02-23 00:51:00,27.6,22.0,30.29,West,259,0.0,2.0,79,0.00,,OVC120,0.00,0.00,VWS V14.01,2013-02-23 05:51:00,
2013-02-23 01:01:00,27.5,21.9,30.29,West,259,0.0,0.0,79,0.00,,OVC120,0.00,0.00,VWS V14.01,2013-02-23 06:01:00,
2013-02-23 01:11:00,27.2,22.1,30.29,West,259,0.0,0.0,81,0.00,,OVC120,0.00,0.00,VWS V14.01,2013-02-23 06:11:00,
2013-02-23 01:21:00,27.3,22.2,30.29,West,259,0.0,0.0,81,0.00,,OVC120,0.00,0.00,VWS V14.01,2013-02-23 06:21:00,
2013-02-23 01:31:00,27.6,22.2,30.27,West,259,1.0,3.0,80,0.00,,OVC120,0.00,0.00,VWS V14.01,2013-02-23 06:31:00,
2013-02-23 01:41:00,27.6,22.2,30.27,West,259,1.0,2.0,80,0.00,,OVC110,0.00,0.00,VWS V14.01,2013-02-23 06:41:00,
2013-02-23 01:51:00,27.5,22.1,30.27,West,259,0.0,2.0,80,0.00,,OVC110,0.00,0.00,VWS V14.01,2013-02-23 06:51:00,
2013-02-23 02:01:00,27.0,21.7,30.27,West,259,0.0,0.0,80,0.00,,OVC110,0.00,0.00,VWS V14.01,2013-02-23 07:01:00,
2013-02-23 02:11:00,26.9,21.9,30.27,West,259,0.0,0.0,81,0.00,,OVC100,0.00,0.00,VWS V14.01,2013-02-23 07:11:00,
2013-02-23 02:21:00,26.7,22.0,30.27,West,259,0.0,0.0,82,0.00,,OVC100,0.00,0.00,VWS V14.01,2013-02-23 07:21:00,
2013-02-23 02:31:00,26.7,22.0,30.26,West,259,0.0,0.0,82,0.00,,OVC100,0.00,0.00,VWS V14.01,2013-02-23 07:31:00,
2013-02-23 02:41:00,27.0,22.5,30.26,West,259,0.0,0.0,83,0.00,,OVC100,0.00,0.00,VWS V14.01,2013-02-23 07:41:00,
2013-02-23 02:51:00,27.2,22.7,30.26,West,259,0.0,0.0,83,0.00,,OVC100,0.00,0.00,VWS V14.01,2013-02-23 07:51:00,
2013-02-23 03:01:00,27.2,22.4,30.26,West,259,0.0,0.0,82,0.00,,OVC100,0.00,0.00,VWS V14.01,2013-02-23 08:01:00,
2013-02-23 03:11:00,27.2,22.4,30.26,West,259,0.0,0.0,82,0.00,,OVC090,0.00,0.00,VWS V14.01,2013-02-23 08:11:00,
2013-02-23 03:21:00,27.2,22.4,30.25,West,259,0.0,2.0,82,0.00,,OVC090,0.00,0.00,VWS V14.01,2013-02-23 08:21:00,
2013-02-23 03:31:00,27.2,22.7,30.26,West,259,0.0,0.0,83,0.00,,OVC090,0.00,0.00,VWS V14.01,2013-02-23 08:31:00,
2013-02-23 03:41:00,27.0,22.8,30.26,West,259,0.0,2.0,84,0.00,,OVC080,0.00,0.00,VWS V14.01,2013-02-23 08:41:00,
2013-02-23 03:51:00,27.0,22.8,30.25,West,259,0.0,1.0,84,0.00,,OVC080,0.00,0.00,VWS V14.01,2013-02-23 08:51:00,
2013-02-23 04:01:00,27.0,22.5,30.25,West,259,2.0,3.0,83,0.00,,OVC080,0.00,0.00,VWS V14.01,2013-02-23 09:01:00,
2013-02-23 04:11:00,26.9,22.4,30.25,West,259,1.0,3.0,83,0.00,,OVC080,0.00,0.00,VWS V14.01,2013-02-23 09:11:00,
2013-02-23 04:21:00,26.9,22.4,30.24,West,259,0.0,3.0,83,0.00,,OVC080,0.00,0.00,VWS V14.01,2013-02-23 09:21:00,
2013-02-23 04:31:00,26.9,22.4,30.24,West,259,0.0,2.0,83,0.00,,OVC080,0.00,0.00,VWS V14.01,2013-02-23 09:31:00,
2013-02-23 04:41:00,27.0,22.5,30.24,West,259,1.0,1.0,83,0.00,,OVC100,0.00,0.00,VWS V14.01,2013-02-23 09:41:00,
2013-02-23 04:51:00,27.0,22.5,30.24,West,259,0.0,2.0,83,0.00,,OVC100,0.00,0.00,VWS V14.01,2013-02-23 09:51:00,
2013-02-23 05:01:00,27.3,22.8,30.24,West,259,0.0,2.0,83,0.00,,OVC100,0.00,0.00,VWS V14.01,2013-02-23 10:01:00,
2013-02-23 05:11:00,27.5,23.0,30.24,West,259,0.0,0.0,83,0.00,,OVC070,0.00,0.00,VWS V14.01,2013-02-23 10:11:00,
2013-02-23 05:21:00,27.3,22.8,30.24,West,259,1.0,2.0,83,0.00,,OVC070,0.00,0.00,VWS V14.01,2013-02-23 10:21:00,
2013-02-23 05:31:00,27.5,23.0,30.24,West,259,4.0,4.0,83,0.00,,OVC070,0.00,0.00,VWS V14.01,2013-02-23 10:31:00,
2013-02-23 05:41:00,27.5,23.0,30.24,West,259,2.0,4.0,83,0.00,,OVC055,0.00,0.00,VWS V14.01,2013-02-23 10:41:00,
2013-02-23 05:51:00,27.5,23.0,30.23,NE,53,4.0,4.0,83,0.00,,OVC055,0.00,0.00,VWS V14.01,2013-02-23 10:51:00,
2013-02-23 06:01:00,27.6,23.1,30.23,NE,53,0.0,4.0,83,0.00,,OVC055,0.00,0.00,VWS V14.01,2013-02-23 11:01:00,
2013-02-23 06:11:00,27.8,23.3,30.23,NE,53,1.0,2.0,83,0.00,,OVC055,0.00,0.00,VWS V14.01,2013-02-23 11:11:00,
2013-02-23 06:21:00,28.4,23.6,30.23,ENE,72,0.0,4.0,82,0.00,,OVC055,0.00,0.00,VWS V14.01,2013-02-23 11:21:00,
2013-02-23 06:31:00,28.5,23.4,30.23,ENE,72,2.0,3.0,81,0.00,,OVC055,0.00,0.00,VWS V14.01,2013-02-23 11:31:00,
2013-02-23 06:41:00,28.2,23.4,30.23,ENE,72,2.0,4.0,82,0.00,,OVC026,0.00,0.00,VWS V14.01,2013-02-23 11:41:00,
2013-02-23 06:51:00,28.2,23.7,30.23,ENE,72,1.0,3.0,83,0.00,,OVC026,0.00,5.00,VWS V14.01,2013-02-23 11:51:00,
2013-02-23 07:11:00,28.4,23.6,30.23,ENE,72,3.0,4.0,82,0.00,,OVC026,0.00,14.00,VWS V14.01,2013-02-23 12:11:00,
2013-02-23 07:21:00,28.7,23.6,30.22,ENE,70,2.0,4.0,81,0.00,,OVC026,0.00,16.00,VWS V14.01,2013-02-23 12:21:00,
2013-02-23 07:31:00,29.0,23.6,30.22,ENE,70,2.0,3.0,80,0.00,,OVC026,0.00,21.00,VWS V14.01,2013-02-23 12:31:00,
2013-02-23 07:41:00,29.3,23.6,30.22,ENE,70,2.0,3.0,79,0.00,,OVC024,0.00,32.00,VWS V14.01,2013-02-23 12:41:00,
2013-02-23 07:51:00,29.5,23.8,30.22,ENE,69,2.0,3.0,79,0.00,,OVC024,0.00,40.00,VWS V14.01,2013-02-23 12:51:00,
2013-02-23 08:01:00,29.7,23.7,30.22,ENE,69,0.0,2.0,78,0.00,,OVC024,0.00,53.00,VWS V14.01,2013-02-23 13:01:00,
2013-02-23 08:11:00,30.0,24.0,30.22,ENE,69,0.0,2.0,78,0.00,,OVC024,0.00,65.00,VWS V14.01,2013-02-23 13:11:00,
2013-02-23 08:21:00,30.1,24.4,30.22,East,88,0.0,3.0,79,0.00,,OVC024,0.00,98.00,VWS V14.01,2013-02-23 13:21:00,
2013-02-23 08:31:00,30.4,25.0,30.21,East,88,0.0,3.0,80,0.00,,OVC024,0.00,127.00,VWS V14.01,2013-02-23 13:31:00,
2013-02-23 08:41:00,30.6,25.5,30.21,East,88,0.0,2.0,81,0.00,,OVC026,0.00,76.00,VWS V14.01,2013-02-23 13:41:00,
2013-02-23 08:51:00,30.6,25.8,30.21,East,88,0.0,0.0,82,0.00,,OVC026,0.00,118.00,VWS V14.01,2013-02-23 13:51:00,
2013-02-23 09:01:00,30.6,26.1,30.21,East,88,1.0,2.0,83,0.00,,OVC026,0.00,111.00,VWS V14.01,2013-02-23 14:01:00,
2013-02-23 09:11:00,30.4,26.1,30.21,East,88,1.0,2.0,84,0.00,,OVC027,0.00,100.00,VWS V14.01,2013-02-23 14:11:00,
2013-02-23 09:21:00,30.6,26.4,30.21,East,88,2.0,2.0,84,0.00,,OVC027,0.00,97.00,VWS V14.01,2013-02-23 14:21:00,
2013-02-23 09:31:00,30.9,26.4,30.20,NE,56,4.0,5.0,83,0.00,,OVC027,0.00,100.00,VWS V14.01,2013-02-23 14:31:00,
2013-02-23 09:41:00,31.2,26.1,30.20,ENE,57,3.0,5.0,81,0.00,,OVC024,0.00,95.00,VWS V14.01,2013-02-23 14:41:00,
2013-02-23 09:51:00,31.2,25.8,30.19,ENE,72,3.0,7.0,80,0.00,,OVC024,0.00,105.00,VWS V14.01,2013-02-23 14:51:00,
2013-02-23 10:01:00,31.0,25.6,30.19,ENE,72,2.0,5.0,80,0.00,,OVC024,0.00,116.00,VWS V14.01,2013-02-23 15:01:00,
2013-02-23 10:11:00,31.2,25.8,30.19,NE,49,3.0,5.0,80,0.00,,OVC037,0.00,123.00,VWS V14.01,2013-02-23 15:11:00,
2013-02-23 10:21:00,31.8,26.4,30.18,ENE,65,5.0,6.0,80,0.00,,OVC037,0.00,153.00,VWS V14.01,2013-02-23 15:21:00,
2013-02-23 10:31:00,31.8,26.0,30.18,NE,53,1.0,6.0,79,0.00,,OVC030,0.00,125.00,VWS V14.01,2013-02-23 15:31:00,
2013-02-23 10:41:00,31.9,26.1,30.18,NE,53,4.0,6.0,79,0.00,,OVC030,0.00,84.00,VWS V14.01,2013-02-23 15:41:00,
2013-02-23 10:51:00,31.9,26.1,30.18,NE,53,3.0,5.0,79,0.00,,OVC030,0.00,97.00,VWS V14.01,2013-02-23 15:51:00,
2013-02-23 11:01:00,32.2,26.4,30.18,NE,53,5.0,5.0,79,0.00,,OVC035,0.00,102.00,VWS V14.01,2013-02-23 16:01:00,
2013-02-23 11:11:00,32.4,26.6,30.18,ENE,68,4.0,7.0,79,0.00,,OVC035,0.00,102.00,VWS V14.01,2013-02-23 16:11:00,
2013-02-23 11:21:00,32.2,26.4,30.17,ENE,68,4.0,7.0,79,0.00,,OVC035,0.00,91.00,VWS V14.01,2013-02-23 16:21:00,
2013-02-23 11:31:00,32.4,26.6,30.16,ENE,73,2.0,6.0,79,0.00,,OVC026,0.00,116.00,VWS V14.01,2013-02-23 16:31:00,
2013-02-23 11:41:00,32.7,26.9,30.16,ENE,60,4.0,6.0,79,0.00,,OVC026,0.00,100.00,VWS V14.01,2013-02-23 16:41:00,
2013-02-23 11:51:00,32.9,27.1,30.15,ENE,74,3.0,7.0,79,0.00,,OVC026,0.00,123.00,VWS V14.01,2013-02-23 16:51:00,
2013-02-23 12:01:00,33.4,27.3,30.15,ENE,73,2.0,8.0,78,0.00,,OVC017,0.00,134.00,VWS V14.01,2013-02-23 17:01:00,
2013-02-23 12:11:00,33.5,27.4,30.15,ENE,74,3.0,10.0,78,0.00,,OVC017,0.00,149.00,VWS V14.01,2013-02-23 17:11:00,
2013-02-23 12:21:00,33.5,27.7,30.13,ENE,63,4.0,6.0,79,0.00,,OVC017,0.00,163.00,VWS V14.01,2013-02-23 17:21:00,
2013-02-23 12:31:00,33.5,28.3,30.13,ENE,57,5.0,7.0,81,0.00,,OVC033,0.00,169.00,VWS V14.01,2013-02-23 17:31:00,
2013-02-23 12:41:00,33.4,28.5,30.13,ENE,74,4.0,8.0,82,0.00,,OVC033,0.00,163.00,VWS V14.01,2013-02-23 17:41:00,
2013-02-23 12:51:00,33.1,28.8,30.12,East,92,3.0,7.0,84,0.00,,OVC033,0.00,178.00,VWS V14.01,2013-02-23 17:51:00,
2013-02-23 13:01:00,33.2,29.5,30.12,East,91,3.0,5.0,86,0.00,,OVC026,0.00,163.00,VWS V14.01,2013-02-23 18:01:00,
2013-02-23 13:11:00,33.1,29.4,30.12,East,97,2.0,5.0,86,0.01,,OVC026,0.01,139.00,VWS V14.01,2013-02-23 18:11:00,
2013-02-23 13:21:00,33.2,29.8,30.12,ENE,70,2.0,5.0,87,0.01,,OVC026,0.01,202.00,VWS V14.01,2013-02-23 18:21:00,
2013-02-23 13:31:00,33.4,29.7,30.11,East,101,4.0,7.0,86,0.01,,OVC025,0.01,148.00,VWS V14.01,2013-02-23 18:31:00,
2013-02-23 13:41:00,33.5,30.0,30.11,ENE,68,2.0,5.0,87,0.01,,OVC025,0.01,155.00,VWS V14.01,2013-02-23 18:41:00,
2013-02-23 13:51:00,33.5,30.0,30.10,ENE,64,2.0,4.0,87,0.01,,OVC025,0.01,148.00,VWS V14.01,2013-02-23 18:51:00,
2013-02-23 14:01:00,33.4,30.0,30.10,ESE,115,4.0,5.0,87,0.01,,OVC025,0.01,116.00,VWS V14.01,2013-02-23 19:01:00,
2013-02-23 14:11:00,33.2,29.8,30.10,East,95,2.0,4.0,87,0.01,,OVC023,0.01,90.00,VWS V14.01,2013-02-23 19:11:00,
2013-02-23 14:21:00,33.2,30.3,30.10,East,81,2.0,3.0,89,0.00,,OVC023,0.01,58.00,VWS V14.01,2013-02-23 19:21:00,
2013-02-23 14:31:00,32.9,30.3,30.10,ENE,64,1.0,4.0,90,0.00,,OVC023,0.01,39.00,VWS V14.01,2013-02-23 19:31:00,
2013-02-23 14:41:00,32.8,30.5,30.10,ENE,66,2.0,3.0,91,0.00,,OVC026,0.01,35.00,VWS V14.01,2013-02-23 19:41:00,
2013-02-23 14:51:00,32.7,30.6,30.10,East,82,2.0,4.0,92,0.00,,OVC026,0.01,40.00,VWS V14.01,2013-02-23 19:51:00,
2013-02-23 15:01:00,32.7,30.9,30.10,East,81,2.0,4.0,93,0.00,,OVC026,0.01,42.00,VWS V14.01,2013-02-23 20:01:00,
2013-02-23 15:11:00,32.8,31.3,30.10,ENE,77,3.0,3.0,94,0.00,,OVC016,0.01,39.00,VWS V14.01,2013-02-23 20:11:00,
2013-02-23 15:21:00,32.8,31.3,30.09,ENE,78,2.0,4.0,94,0.00,,OVC016,0.01,44.00,VWS V14.01,2013-02-23 20:21:00,
2013-02-23 15:31:00,32.7,31.4,30.09,East,80,2.0,3.0,95,0.00,,OVC016,0.01,28.00,VWS V14.01,2013-02-23 20:31:00,
2013-02-23 15:41:00,32.5,31.2,30.09,East,84,2.0,4.0,95,0.00,,OVC010,0.01,16.00,VWS V14.01,2013-02-23 20:41:00,
2013-02-23 15:51:00,32.4,31.1,30.09,ENE,70,3.0,5.0,95,0.00,,OVC010,0.01,19.00,VWS V14.01,2013-02-23 20:51:00,
2013-02-23 16:01:00,32.4,31.4,30.08,ESE,108,4.0,5.0,96,0.01,,OVC010,0.02,21.00,VWS V14.01,2013-02-23 21:01:00,
2013-02-23 16:11:00,32.2,31.2,30.08,ENE,77,1.0,4.0,96,0.01,,OVC010,0.02,14.00,VWS V14.01,2013-02-23 21:11:00,
2013-02-23 16:21:00,32.4,31.4,30.07,ENE,63,3.0,6.0,96,0.01,,OVC010,0.02,23.00,VWS V14.01,2013-02-23 21:21:00,
2013-02-23 16:31:00,32.4,31.6,30.06,East,90,4.0,5.0,97,0.02,,OVC010,0.03,11.00,VWS V14.01,2013-02-23 21:31:00,
2013-02-23 16:41:00,32.4,31.6,30.06,ENE,63,0.0,4.0,97,0.02,,OVC021,0.03,7.00,VWS V14.01,2013-02-23 21:41:00,
2013-02-23 16:51:00,32.4,31.6,30.07,ENE,63,3.0,3.0,97,0.02,,OVC021,0.03,5.00,VWS V14.01,2013-02-23 21:51:00,
2013-02-23 17:01:00,32.2,31.5,30.07,ENE,63,0.0,4.0,97,0.02,,OVC021,0.03,0.00,VWS V14.01,2013-02-23 22:01:00,
2013-02-23 17:11:00,32.2,31.5,30.07,ENE,63,0.0,2.0,97,0.01,,OVC022,0.03,0.00,VWS V14.01,2013-02-23 22:11:00,
2013-02-23 17:21:00,32.2,31.7,30.06,ENE,63,1.0,3.0,98,0.01,,OVC022,0.03,0.00,VWS V14.01,2013-02-23 22:21:00,
2013-02-23 17:31:00,32.2,31.7,30.06,ENE,63,1.0,4.0,98,0.01,,OVC022,0.03,0.00,VWS V14.01,2013-02-23 22:31:00,
2013-02-23 17:41:00,32.2,31.7,30.06,ENE,63,2.0,3.0,98,0.00,,OVC015,0.03,0.00,VWS V14.01,2013-02-23 22:41:00,
2013-02-23 17:51:00,32.2,31.7,30.05,ENE,63,1.0,3.0,98,0.00,,OVC015,0.03,0.00,VWS V14.01,2013-02-23 22:51:00,
2013-02-23 18:01:00,32.2,31.7,30.05,ENE,63,2.0,2.0,98,0.00,,OVC015,0.03,0.00,VWS V14.01,2013-02-23 23:01:00,
2013-02-23 18:11:00,32.2,31.7,30.05,ENE,63,2.0,2.0,98,0.00,,OVC013,0.03,0.00,VWS V14.01,2013-02-23 23:11:00,
2013-02-23 18:21:00,32.2,31.7,30.05,ENE,63,3.0,3.0,98,0.00,,OVC013,0.03,0.00,VWS V14.01,2013-02-23 23:21:00,
2013-02-23 18:31:00,32.2,31.7,30.04,ENE,63,3.0,3.0,98,0.00,,OVC013,0.03,0.00,VWS V14.01,2013-02-23 23:31:00,
2013-02-23 18:41:00,32.2,31.7,30.04,ENE,63,2.0,3.0,98,0.00,,OVC017,0.03,0.00,VWS V14.01,2013-02-23 23:41:00,
2013-02-23 18:51:00,32.2,32.0,30.04,ENE,63,0.0,3.0,99,0.00,,OVC017,0.03,0.00,VWS V14.01,2013-02-23 23:51:00,
2013-02-23 19:01:00,32.2,32.0,30.04,ENE,63,1.0,2.0,99,0.00,,OVC017,0.03,0.00,VWS V14.01,2013-02-24 00:01:00,
2013-02-23 19:11:00,32.2,32.0,30.04,ENE,63,1.0,3.0,99,0.00,,OVC014,0.03,0.00,VWS V14.01,2013-02-24 00:11:00,
2013-02-23 19:21:00,32.2,32.0,30.03,ENE,63,2.0,3.0,99,0.01,,OVC014,0.04,0.00,VWS V14.01,2013-02-24 00:21:00,
2013-02-23 19:31:00,32.2,32.0,30.03,ENE,63,2.0,3.0,99,0.01,,OVC014,0.04,0.00,VWS V14.01,2013-02-24 00:31:00,
2013-02-23 19:41:00,32.2,32.0,30.03,ENE,63,2.0,3.0,99,0.01,,OVC014,0.04,0.00,VWS V14.01,2013-02-24 00:41:00,
2013-02-23 19:51:00,32.2,32.0,30.03,ENE,63,2.0,3.0,99,0.01,,OVC014,0.04,0.00,VWS V14.01,2013-02-24 00:51:00,
2013-02-23 20:01:00,32.2,32.0,30.02,ENE,63,2.0,3.0,99,0.01,,OVC014,0.04,0.00,VWS V14.01,2013-02-24 01:01:00,
2013-02-23 20:11:00,32.2,32.0,30.02,ENE,63,3.0,3.0,99,0.01,,OVC014,0.04,0.00,VWS V14.01,2013-02-24 01:11:00,
2013-02-23 20:21:00,32.2,32.0,30.02,ENE,63,2.0,3.0,99,0.01,,OVC014,0.04,0.00,VWS V14.01,2013-02-24 01:21:00,
2013-02-23 20:31:00,32.2,32.0,30.01,ENE,63,2.0,4.0,99,0.00,,OVC014,0.04,0.00,VWS V14.01,2013-02-24 01:31:00,
2013-02-23 20:41:00,32.2,32.0,30.01,ENE,63,3.0,4.0,99,0.00,,OVC016,0.04,0.00,VWS V14.01,2013-02-24 01:41:00,
2013-02-23 20:51:00,32.2,32.0,30.01,ENE,63,2.0,4.0,99,0.00,,OVC016,0.04,0.00,VWS V14.01,2013-02-24 01:51:00,
2013-02-23 21:01:00,32.2,32.0,30.01,ENE,63,2.0,4.0,99,0.00,,OVC016,0.04,0.00,VWS V14.01,2013-02-24 02:01:00,
2013-02-23 21:11:00,32.2,32.0,30.01,ENE,63,3.0,5.0,99,0.00,,OVC023,0.04,0.00,VWS V14.01,2013-02-24 02:11:00,
2013-02-23 21:21:00,32.1,31.9,30.00,ENE,63,2.0,4.0,99,0.00,,OVC023,0.04,0.00,VWS V14.01,2013-02-24 02:21:00,
2013-02-23 21:31:00,32.1,31.9,30.00,ENE,63,3.0,3.0,99,0.00,,OVC023,0.04,0.00,VWS V14.01,2013-02-24 02:31:00,
2013-02-23 21:41:00,32.1,31.9,30.00,ENE,63,2.0,4.0,99,0.00,,OVC018,0.04,0.00,VWS V14.01,2013-02-24 02:41:00,
2013-02-23 21:51:00,32.1,31.9,30.00,ENE,63,3.0,4.0,99,0.00,,OVC018,0.04,0.00,VWS V14.01,2013-02-24 02:51:00,
2013-02-23 22:01:00,32.1,31.9,29.99,ENE,63,3.0,4.0,99,0.00,,OVC018,0.04,0.00,VWS V14.01,2013-02-24 03:01:00,
2013-02-23 22:11:00,32.1,31.9,29.99,ENE,63,4.0,4.0,99,0.00,,OVC033,0.04,0.00,VWS V14.01,2013-02-24 03:11:00,
2013-02-23 22:21:00,31.9,31.6,29.98,ENE,63,2.0,5.0,99,0.00,,OVC033,0.04,0.00,VWS V14.01,2013-02-24 03:21:00,
2013-02-23 22:31:00,31.8,31.5,29.97,ENE,63,3.0,3.0,99,0.00,,OVC033,0.04,0.00,VWS V14.01,2013-02-24 03:31:00,
2013-02-23 22:41:00,31.8,31.5,29.97,ENE,63,0.0,3.0,99,0.00,,OVC013,0.04,0.00,VWS V14.01,2013-02-24 03:41:00,
2013-02-23 22:51:00,31.6,31.4,29.96,ENE,63,0.0,0.0,99,0.00,,OVC013,0.04,0.00,VWS V14.01,2013-02-24 03:51:00,
2013-02-23 23:01:00,31.6,31.6,29.96,ENE,63,0.0,0.0,100,0.00,,OVC013,0.04,0.00,VWS V14.01,2013-02-24 04:01:00,
2013-02-23 23:11:00,31.8,31.8,29.96,ENE,63,0.0,0.0,100,0.00,,OVC007,0.04,0.00,VWS V14.01,2013-02-24 04:11:00,
2013-02-23 23:21:00,31.8,31.8,29.96,ENE,63,0.0,0.0,100,0.00,,OVC007,0.04,0.00,VWS V14.01,2013-02-24 04:21:00,
2013-02-23 23:31:00,31.8,31.8,29.95,ENE,63,0.0,0.0,100,0.00,,OVC007,0.04,0.00,VWS V14.01,2013-02-24 04:31:00,
2013-02-23 23:41:00,31.8,31.8,29.95,ENE,63,0.0,0.0,100,0.00,,OVC004,0.04,0.00,VWS V14.01,2013-02-24 04:41:00,
2013-02-23 23:51:00,31.8,31.8,29.95,ENE,63,0.0,0.0,100,0.00,,OVC004,0.04,0.00,VWS V14.01,2013-02-24 04:51:00,